Powrót do katalogu

FENGYUN 1C DEB

AktywnyPO
NORAD 30862·DEBRIS·🇨🇳 China

Wystrzelony May 10, 1999 z Taiyuan Satellite Launch Center

Loading…

Następne Przeloty (najbliższe 24 godziny)

TLE

ŚwieżeSource: Space-Track

Epoka: Sep 14, 2026, 06:21 UTC

1 30862U 99025AWY 26257.26478499  .00005559  00000-0  14865-2 0  9995
2 30862  98.9573   8.3108 0047013  62.7468 327.6543 14.48073954  6742

Śledź FENGYUN 1C DEB w czasie rzeczywistym z AllMySat

Download on the App Store